Time,TemperatureF,DewpointF,PressureIn,WindDirection,WindDirectionDegrees,WindSpeedMPH,WindSpeedGustMPH,Humidity,HourlyPrecipIn,Conditions,Clouds,dailyrainin,SoftwareType,DateUTC
2013-04-19 00:10:00,71.8,60.0,29.89,SW,236,2.0,5.0,67,0.00,,,0.00,weatherlink.com 1.10,2013-04-19 04:10:00,
2013-04-19 00:25:00,71.5,60.0,29.89,SW,217,0.0,1.0,68,0.00,,,0.00,weatherlink.com 1.10,2013-04-19 04:25:00,
2013-04-19 00:40:00,71.2,61.0,29.88,WSW,239,0.0,2.0,69,0.00,,,0.00,weatherlink.com 1.10,2013-04-19 04:40:00,
2013-04-19 00:55:00,70.9,61.0,29.87,SW,218,0.0,1.0,71,0.00,,,0.00,weatherlink.com 1.10,2013-04-19 04:55:00,
2013-04-19 01:10:00,70.6,61.0,29.87,SW,214,0.0,0.0,72,0.00,,,0.00,weatherlink.com 1.10,2013-04-19 05:10:00,
2013-04-19 01:25:00,70.1,61.0,29.87,East,88,0.0,2.0,72,0.00,,,0.00,weatherlink.com 1.10,2013-04-19 05:25:00,
2013-04-19 01:40:00,69.6,61.0,29.86,SE,141,0.0,1.0,73,0.00,,,0.00,weatherlink.com 1.10,2013-04-19 05:40:00,
2013-04-19 01:55:00,69.2,61.0,29.85,SW,217,0.0,1.0,74,0.00,,,0.00,weatherlink.com 1.10,2013-04-19 05:55:00,
2013-04-19 02:10:00,68.7,61.0,29.85,ENE,66,0.0,1.0,75,0.00,,,0.00,weatherlink.com 1.10,2013-04-19 06:10:00,
2013-04-19 02:25:00,68.4,61.0,29.84,ENE,60,0.0,0.0,76,0.00,,,0.00,weatherlink.com 1.10,2013-04-19 06:25:00,
2013-04-19 02:40:00,68.3,60.0,29.84,WSW,239,0.0,1.0,76,0.00,,,0.00,weatherlink.com 1.10,2013-04-19 06:40:00,
2013-04-19 02:55:00,68.3,61.0,29.83,WSW,239,0.0,0.0,77,0.00,,,0.00,weatherlink.com 1.10,2013-04-19 06:55:00,
2013-04-19 03:10:00,68.0,61.0,29.82,WSW,257,0.0,0.0,77,0.00,,,0.00,weatherlink.com 1.10,2013-04-19 07:10:00,
2013-04-19 03:25:00,67.3,61.0,29.82,WSW,257,0.0,0.0,79,0.00,,,0.00,weatherlink.com 1.10,2013-04-19 07:25:00,
2013-04-19 03:40:00,66.9,60.0,29.81,NE,47,0.0,1.0,79,0.00,,,0.00,weatherlink.com 1.10,2013-04-19 07:40:00,
2013-04-19 03:56:00,66.6,60.0,29.81,SSE,163,0.0,1.0,80,0.00,,,0.00,weatherlink.com 1.10,2013-04-19 07:56:00,
2013-04-19 04:11:00,66.6,60.0,29.80,SE,129,0.0,6.0,80,0.00,,,0.00,weatherlink.com 1.10,2013-04-19 08:11:00,
2013-04-19 04:26:00,67.1,61.0,29.80,SE,138,0.0,1.0,80,0.00,,,0.00,weatherlink.com 1.10,2013-04-19 08:26:00,
2013-04-19 04:41:00,67.6,61.0,29.80,SSW,204,4.0,7.0,79,0.00,,,0.00,weatherlink.com 1.10,2013-04-19 08:41:00,
2013-04-19 04:56:00,67.8,61.0,29.80,SW,219,1.0,9.0,80,0.00,,,0.00,weatherlink.com 1.10,2013-04-19 08:56:00,
2013-04-19 05:11:00,67.7,61.0,29.80,WSW,244,0.0,5.0,80,0.00,,,0.00,weatherlink.com 1.10,2013-04-19 09:11:00,
2013-04-19 05:26:00,67.8,62.0,29.80,ENE,67,0.0,4.0,81,0.00,,,0.00,weatherlink.com 1.10,2013-04-19 09:26:00,
2013-04-19 05:41:00,68.0,62.0,29.79,SW,225,1.0,7.0,82,0.00,,,0.00,weatherlink.com 1.10,2013-04-19 09:41:00,
2013-04-19 05:56:00,68.1,62.0,29.79,ESE,106,0.0,4.0,82,0.00,,,0.00,weatherlink.com 1.10,2013-04-19 09:56:00,
2013-04-19 06:11:00,68.2,63.0,29.79,South,186,2.0,7.0,83,0.00,,,0.00,weatherlink.com 1.10,2013-04-19 10:11:00,
2013-04-19 06:26:00,68.2,63.0,29.80,SE,145,0.0,6.0,84,0.00,,,0.00,weatherlink.com 1.10,2013-04-19 10:26:00,
2013-04-19 06:41:00,68.3,63.0,29.80,SW,229,1.0,5.0,84,0.00,,,0.00,weatherlink.com 1.10,2013-04-19 10:41:00,
2013-04-19 06:56:00,68.7,64.0,29.80,SSE,165,2.0,9.0,85,0.00,,,0.00,weatherlink.com 1.10,2013-04-19 10:56:00,
2013-04-19 07:11:00,69.1,64.0,29.81,SSW,200,4.0,7.0,84,0.00,,,0.00,weatherlink.com 1.10,2013-04-19 11:11:00,
2013-04-19 07:26:00,69.3,64.0,29.81,SW,214,1.0,10.0,84,0.00,,,0.00,weatherlink.com 1.10,2013-04-19 11:26:00,
2013-04-19 07:41:00,69.4,64.0,29.82,ESE,114,0.0,12.0,84,0.00,,,0.00,weatherlink.com 1.10,2013-04-19 11:41:00,
2013-04-19 07:56:00,69.5,65.0,29.81,SSW,194,0.0,14.0,85,0.00,,,0.00,weatherlink.com 1.10,2013-04-19 11:56:00,
2013-04-19 08:11:00,69.0,65.0,29.81,SE,141,1.0,8.0,86,0.00,,,0.00,weatherlink.com 1.10,2013-04-19 12:11:00,
2013-04-19 08:26:00,68.8,65.0,29.81,ENE,68,0.0,7.0,88,0.00,,,0.00,weatherlink.com 1.10,2013-04-19 12:26:00,
2013-04-19 08:41:00,68.9,65.0,29.79,South,186,1.0,7.0,87,0.00,,,0.00,weatherlink.com 1.10,2013-04-19 12:41:00,
2013-04-19 08:56:00,69.0,65.0,29.79,SSW,203,0.0,7.0,88,0.00,,,0.00,weatherlink.com 1.10,2013-04-19 12:56:00,
2013-04-19 09:11:00,69.1,66.0,29.79,SW,214,4.0,6.0,88,0.00,,,0.00,weatherlink.com 1.10,2013-04-19 13:11:00,
2013-04-19 09:26:00,69.2,66.0,29.78,SSW,204,2.0,8.0,88,0.00,,,0.00,weatherlink.com 1.10,2013-04-19 13:26:00,
2013-04-19 09:41:00,69.5,66.0,29.77,SSE,158,0.0,7.0,88,0.00,,,0.00,weatherlink.com 1.10,2013-04-19 13:41:00,
2013-04-19 09:56:00,69.6,66.0,29.77,SW,235,1.0,5.0,88,0.00,,,0.00,weatherlink.com 1.10,2013-04-19 13:56:00,
2013-04-19 10:11:00,69.3,66.0,29.76,ESE,110,0.0,3.0,89,0.01,,,0.01,weatherlink.com 1.10,2013-04-19 14:11:00,
2013-04-19 10:26:00,63.3,59.0,29.80,NNE,24,2.0,10.0,87,0.25,,,0.25,weatherlink.com 1.10,2013-04-19 14:26:00,
2013-04-19 10:41:00,59.8,57.0,29.81,SW,225,0.0,12.0,91,0.32,,,0.32,weatherlink.com 1.10,2013-04-19 14:41:00,
2013-04-19 10:56:00,58.6,56.0,29.83,WNW,283,4.0,8.0,91,0.34,,,0.34,weatherlink.com 1.10,2013-04-19 14:56:00,
2013-04-19 11:11:00,57.9,56.0,29.84,NNW,338,3.0,11.0,92,0.34,,,0.35,weatherlink.com 1.10,2013-04-19 15:11:00,
2013-04-19 11:26:00,56.9,55.0,29.86,East,86,1.0,7.0,92,0.14,,,0.41,weatherlink.com 1.10,2013-04-19 15:26:00,
2013-04-19 11:41:00,56.2,54.0,29.86,WSW,249,0.0,3.0,92,0.12,,,0.44,weatherlink.com 1.10,2013-04-19 15:41:00,
2013-04-19 11:56:00,55.6,53.0,29.87,WNW,288,1.0,3.0,92,0.13,,,0.47,weatherlink.com 1.10,2013-04-19 15:56:00,
2013-04-19 12:11:00,54.6,52.0,29.88,WNW,291,0.0,5.0,92,0.17,,,0.52,weatherlink.com 1.10,2013-04-19 16:11:00,
2013-04-19 12:27:00,54.1,52.0,29.87,North,11,0.0,2.0,93,0.19,,,0.60,weatherlink.com 1.10,2013-04-19 16:27:00,
2013-04-19 12:42:00,53.5,51.0,29.87,West,278,0.0,5.0,92,0.18,,,0.62,weatherlink.com 1.10,2013-04-19 16:42:00,
2013-04-19 12:57:00,53.0,51.0,29.88,NNE,29,0.0,6.0,93,0.24,,,0.71,weatherlink.com 1.10,2013-04-19 16:57:00,
2013-04-19 13:12:00,53.0,51.0,29.89,ENE,76,1.0,6.0,93,0.20,,,0.72,weatherlink.com 1.10,2013-04-19 17:12:00,
2013-04-19 13:27:00,52.7,51.0,29.90,West,271,1.0,7.0,93,0.13,,,0.73,weatherlink.com 1.10,2013-04-19 17:27:00,
2013-04-19 13:42:00,52.1,50.0,29.92,WNW,287,1.0,7.0,92,0.14,,,0.76,weatherlink.com 1.10,2013-04-19 17:42:00,
2013-04-19 13:57:00,51.8,50.0,29.90,NNE,19,1.0,4.0,92,0.05,,,0.76,weatherlink.com 1.10,2013-04-19 17:57:00,
2013-04-19 14:12:00,51.4,49.0,29.89,West,269,2.0,7.0,92,0.04,,,0.76,weatherlink.com 1.10,2013-04-19 18:12:00,
2013-04-19 14:27:00,51.6,49.0,29.89,NNE,23,1.0,5.0,92,0.02,,,0.76,weatherlink.com 1.10,2013-04-19 18:27:00,
2013-04-19 14:42:00,51.5,49.0,29.88,West,264,2.0,6.0,91,0.00,,,0.76,weatherlink.com 1.10,2013-04-19 18:42:00,
2013-04-19 14:57:00,51.7,49.0,29.88,NE,48,0.0,4.0,91,0.00,,,0.76,weatherlink.com 1.10,2013-04-19 18:57:00,
2013-04-19 15:12:00,51.5,49.0,29.89,SE,124,1.0,5.0,90,0.00,,,0.76,weatherlink.com 1.10,2013-04-19 19:12:00,
2013-04-19 15:27:00,51.5,48.0,29.91,WSW,242,1.0,8.0,88,0.00,,,0.76,weatherlink.com 1.10,2013-04-19 19:27:00,
2013-04-19 15:42:00,50.9,48.0,29.91,South,170,3.0,15.0,88,0.00,,,0.76,weatherlink.com 1.10,2013-04-19 19:42:00,
2013-04-19 15:57:00,50.5,47.0,29.89,NW,316,0.0,7.0,86,0.00,,,0.76,weatherlink.com 1.10,2013-04-19 19:57:00,
2013-04-19 16:12:00,50.1,46.0,29.91,WSW,249,1.0,9.0,85,0.00,,,0.76,weatherlink.com 1.10,2013-04-19 20:12:00,
2013-04-19 16:27:00,49.5,46.0,29.93,NNE,27,1.0,7.0,86,0.00,,,0.76,weatherlink.com 1.10,2013-04-19 20:27:00,
2013-04-19 16:42:00,48.7,45.0,29.92,NNE,23,0.0,6.0,87,0.01,,,0.77,weatherlink.com 1.10,2013-04-19 20:42:00,
2013-04-19 16:57:00,48.6,45.0,29.91,North,354,0.0,2.0,88,0.01,,,0.77,weatherlink.com 1.10,2013-04-19 20:57:00,
2013-04-19 17:12:00,48.7,45.0,29.91,NNE,20,0.0,5.0,87,0.01,,,0.77,weatherlink.com 1.10,2013-04-19 21:12:00,
2013-04-19 17:27:00,49.5,45.0,29.90,West,267,0.0,4.0,85,0.00,,,0.77,weatherlink.com 1.10,2013-04-19 21:27:00,
2013-04-19 17:42:00,49.9,45.0,29.94,SW,229,5.0,10.0,84,0.00,,,0.77,weatherlink.com 1.10,2013-04-19 21:42:00,
2013-04-19 17:57:00,50.0,45.0,29.92,WSW,256,0.0,4.0,83,0.00,,,0.77,weatherlink.com 1.10,2013-04-19 21:57:00,
2013-04-19 18:12:00,50.2,45.0,29.92,SW,226,0.0,3.0,83,0.00,,,0.77,weatherlink.com 1.10,2013-04-19 22:12:00,
2013-04-19 18:27:00,50.3,46.0,29.92,NNE,25,2.0,3.0,84,0.00,,,0.77,weatherlink.com 1.10,2013-04-19 22:27:00,
2013-04-19 18:42:00,50.3,45.0,29.91,West,259,0.0,5.0,83,0.00,,,0.77,weatherlink.com 1.10,2013-04-19 22:42:00,
2013-04-19 18:57:00,51.0,46.0,29.92,NNW,332,0.0,4.0,82,0.00,,,0.77,weatherlink.com 1.10,2013-04-19 22:57:00,
2013-04-19 19:12:00,51.1,45.0,29.91,NE,43,0.0,4.0,81,0.00,,,0.77,weatherlink.com 1.10,2013-04-19 23:12:00,
2013-04-19 19:27:00,50.4,45.0,29.91,East,93,0.0,4.0,81,0.00,,,0.77,weatherlink.com 1.10,2013-04-19 23:27:00,
2013-04-19 19:42:00,50.1,45.0,29.93,NNE,21,0.0,3.0,82,0.00,,,0.77,weatherlink.com 1.10,2013-04-19 23:42:00,
2013-04-19 19:57:00,49.8,44.0,29.93,NNE,20,1.0,4.0,81,0.00,,,0.77,weatherlink.com 1.10,2013-04-19 23:57:00,
2013-04-19 20:12:00,49.5,44.0,29.94,NNW,334,1.0,3.0,81,0.00,,,0.77,weatherlink.com 1.10,2013-04-20 00:12:00,
2013-04-19 20:27:00,49.1,43.0,29.95,NE,39,1.0,4.0,79,0.00,,,0.77,weatherlink.com 1.10,2013-04-20 00:27:00,
2013-04-19 20:42:00,48.8,43.0,29.96,SE,142,0.0,4.0,79,0.00,,,0.77,weatherlink.com 1.10,2013-04-20 00:42:00,
2013-04-19 20:57:00,48.4,42.0,29.98,North,9,0.0,4.0,78,0.00,,,0.77,weatherlink.com 1.10,2013-04-20 00:57:00,
2013-04-19 21:12:00,48.3,42.0,30.00,West,281,0.0,5.0,78,0.00,,,0.77,weatherlink.com 1.10,2013-04-20 01:12:00,
2013-04-19 21:28:00,48.2,42.0,30.01,SSE,155,0.0,6.0,78,0.00,,,0.77,weatherlink.com 1.10,2013-04-20 01:28:00,
2013-04-19 21:43:00,47.7,41.0,30.01,North,360,0.0,6.0,77,0.00,,,0.77,weatherlink.com 1.10,2013-04-20 01:43:00,
2013-04-19 21:58:00,47.2,40.0,30.01,NNE,16,0.0,4.0,77,0.00,,,0.77,weatherlink.com 1.10,2013-04-20 01:58:00,
2013-04-19 22:13:00,47.0,40.0,30.03,NNE,13,1.0,4.0,77,0.00,,,0.77,weatherlink.com 1.10,2013-04-20 02:13:00,
2013-04-19 22:28:00,46.7,40.0,30.04,South,180,0.0,2.0,77,0.00,,,0.77,weatherlink.com 1.10,2013-04-20 02:28:00,
2013-04-19 22:43:00,46.4,40.0,30.04,NNE,13,1.0,4.0,78,0.00,,,0.77,weatherlink.com 1.10,2013-04-20 02:43:00,
2013-04-19 22:58:00,46.2,40.0,30.04,North,6,1.0,3.0,78,0.00,,,0.77,weatherlink.com 1.10,2013-04-20 02:58:00,
2013-04-19 23:13:00,46.1,40.0,30.05,North,349,0.0,2.0,78,0.00,,,0.77,weatherlink.com 1.10,2013-04-20 03:13:00,
2013-04-19 23:28:00,45.7,40.0,30.05,NNE,13,1.0,2.0,80,0.00,,,0.77,weatherlink.com 1.10,2013-04-20 03:28:00,
2013-04-19 23:43:00,45.3,40.0,30.05,North,356,0.0,2.0,81,0.00,,,0.77,weatherlink.com 1.10,2013-04-20 03:43:00,
2013-04-19 23:58:00,45.0,40.0,30.05,North,356,0.0,1.0,81,0.00,,,0.77,weatherlink.com 1.10,2013-04-20 03:58:00,